CW9854 Weather Reports


Display with metric or nautical units.
time (UTC)temp
F
wind
direction
speed
MPH
gust
MPH
rain 1hr
in
rain 24hr
in
rain mn
in
humidity
%
barometer
mb
20260906154503 68 39 2.0 4.0 0.00 0.00 0.00 84 1019.0
20260906154003 68 40 1.0 4.0 0.00 0.00 0.00 83 1019.1
20260906153503 68 38 1.0 5.0 0.00 0.00 0.00 84 1019.3
20260906153217 68 29 1.0 5.0 0.00 0.00 0.00 84 1019.1
20260906152503 68 26 1.0 4.0 0.00 0.00 0.00 85 1019.2
20260906152003 68 50 1.0 6.0 0.00 0.00 0.00 85 1019.2
20260906151504 68 57 1.0 6.0 0.00 0.00 0.00 86 1019.1
20260906151003 68 40 1.0 5.0 0.00 0.00 0.00 86 1018.9
20260906150508 67 33 1.0 5.0 0.00 0.00 0.00 85 1018.8
20260906150003 67 35 1.0 3.0 0.00 0.00 0.00 88 1018.7
20260906145508 67 40 1.0 4.0 0.00 0.00 0.00 88 1018.9
20260906145003 66 42 1.0 4.0 0.00 0.00 0.00 90 1018.9
20260906144503 66 35 1.0 4.0 0.00 0.00 0.00 89 1018.8
20260906144217 66 33 1.0 4.0 0.00 0.00 0.00 90 1018.7
20260906143503 66 34 1.0 3.0 0.00 0.00 0.00 90 1018.6
20260906143003 65 16 1.0 2.0 0.00 0.00 0.00 90 1018.6
20260906142503 65 15 0.0 2.0 0.00 0.00 0.00 90 1018.7
20260906142003 65 53 0.0 2.0 0.00 0.00 0.00 91 1018.6
20260906141503 65 22 0.0 2.0 0.00 0.00 0.00 91 1018.8
20260906141003 65 21 1.0 2.0 0.00 0.00 0.00 91 1018.8
20260906140503 65 28 1.0 2.0 0.00 0.00 0.00 92 1018.7
20260906140216 65 29 1.0 2.0 0.00 0.00 0.00 92 1018.6
20260906135503 64 23 1.0 2.0 0.00 0.00 0.00 93 1018.6
20260906135003 64 20 1.0 3.0 0.00 0.00 0.00 93 1018.5
20260906134503 64 19 0.0 3.0 0.00 0.00 0.00 94 1018.5
20260906134003 64 30 1.0 3.0 0.00 0.00 0.00 94 1018.5
20260906133503 64 26 1.0 3.0 0.00 0.00 0.00 94 1018.5
20260906133008 64 27 1.0 3.0 0.00 0.00 0.00 95 1018.5
20260906132504 64 32 1.0 3.0 0.00 0.00 0.00 96 1018.4
20260906132218 64 28 0.0 3.0 0.00 0.00 0.00 96 1018.4
20260906131503 63 30 0.0 3.0 0.00 0.00 0.00 96 1018.4
20260906131003 63 34 1.0 3.0 0.00 0.00 0.00 97 1018.4
20260906130503 63 33 1.0 3.0 0.00 0.00 0.00 97 1018.4
20260906130003 63 36 0.0 2.0 0.00 0.00 0.00 97 1018.4
20260906125503 63 31 1.0 4.0 0.00 0.00 0.00 97 1018.3
20260906125218 63 25 1.0 4.0 0.00 0.00 0.00 97 1018.2
20260906124503 62 18 0.0 3.0 0.00 0.00 0.00 97 1018.2
20260906124218 62 19 0.0 3.0 0.00 0.00 0.00 97 1018.1
20260906123503 61 17 0.0 3.0 0.00 0.00 0.00 97 1018.0
20260906123003 60 0 0.0 0.0 0.00 0.00 0.00 97 1018.1
20260906122503 60 0 0.0 0.0 0.00 0.00 0.00 97 1018.0
20260906122003 59 0 0.0 0.0 0.00 0.00 0.00 96 1018.0
20260906121503 59 0 0.0 0.0 0.00 0.00 0.00 96 1018.0
20260906121003 58 0 0.0 0.0 0.00 0.00 0.00 96 1018.0
20260906120508 58 0 0.0 0.0 0.00 0.00 0.00 96 1017.9
20260906120003 58 0 0.0 0.0 0.00 0.00 0.00 96 1018.0
20260906115503 58 0 0.0 0.0 0.00 0.00 0.00 95 1018.0
20260906115003 58 0 0.0 0.0 0.00 0.00 0.00 95 1017.9
20260906114717 58 0 0.0 0.0 0.00 0.00 0.00 95 1017.8
20260906114003 57 0 0.0 0.0 0.00 0.00 0.00 95 1017.7
20260906113717 57 0 0.0 0.0 0.00 0.00 0.00 95 1017.7
20260906113003 57 0 0.0 0.0 0.00 0.00 0.00 95 1017.7
20260906112503 57 0 0.0 0.0 0.00 0.00 0.00 95 1017.7
20260906112003 57 0 0.0 0.0 0.00 0.00 0.00 94 1017.6
20260906111503 57 0 0.0 0.0 0.00 0.00 0.00 94 1017.6
20260906111003 57 0 0.0 0.0 0.00 0.00 0.00 94 1017.4
20260906110504 57 0 0.0 0.0 0.00 0.00 0.00 94 1017.4
20260906110003 57 0 0.0 0.0 0.00 0.00 0.00 94 1017.4
20260906105503 57 0 0.0 0.0 0.00 0.00 0.00 94 1017.2
20260906105003 57 0 0.0 0.0 0.00 0.00 0.00 94 1017.2
20260906104503 57 0 0.0 0.0 0.00 0.00 0.00 94 1017.2
20260906104008 58 0 0.0 0.0 0.00 0.00 0.00 94 1017.1
20260906103503 58 0 0.0 0.0 0.00 0.00 0.00 94 1017.0
20260906103003 58 0 0.0 0.0 0.00 0.00 0.00 94 1017.0
20260906102503 58 0 0.0 0.0 0.00 0.00 0.00 94 1017.0
20260906102003 58 0 0.0 0.0 0.00 0.00 0.00 94 1017.0
20260906101503 58 0 0.0 0.0 0.00 0.00 0.00 94 1017.0
20260906101003 58 0 0.0 0.0 0.00 0.00 0.00 94 1016.9
20260906100503 58 0 0.0 0.0 0.00 0.00 0.00 94 1016.9
20260906100003 58 0 0.0 0.0 0.00 0.00 0.00 94 1016.9
20260906095503 58 0 0.0 0.0 0.00 0.00 0.00 94 1016.9
20260906095003 58 0 0.0 0.0 0.00 0.00 0.00 94 1016.9
20260906094503 58 0 0.0 0.0 0.00 0.00 0.00 94 1016.9
20260906094003 58 0 0.0 0.0 0.00 0.00 0.00 94 1016.9
20260906093503 59 0 0.0 0.0 0.00 0.00 0.00 94 1016.7
20260906093003 59 0 0.0 0.0 0.00 0.00 0.00 94 1016.6
20260906092503 59 0 0.0 0.0 0.00 0.00 0.00 94 1016.6
20260906092217 59 0 0.0 0.0 0.00 0.00 0.00 94 1016.6
20260906091504 59 0 0.0 0.0 0.00 0.00 0.00 94 1016.4
20260906091217 59 0 0.0 0.0 0.00 0.00 0.00 94 1016.3
20260906090503 59 0 0.0 0.0 0.00 0.00 0.00 94 1016.3
20260906090003 60 0 0.0 0.0 0.00 0.00 0.00 94 1016.4
20260906085503 60 0 0.0 0.0 0.00 0.00 0.00 94 1016.2
20260906085003 60 0 0.0 0.0 0.00 0.00 0.00 94 1016.1
20260906084503 60 0 0.0 0.0 0.00 0.00 0.00 94 1016.2
20260906084003 60 0 0.0 0.0 0.00 0.00 0.00 94 1016.1
20260906083503 60 0 0.0 0.0 0.00 0.00 0.00 94 1016.0
20260906083003 60 0 0.0 0.0 0.00 0.00 0.00 94 1016.0
20260906082503 60 0 0.0 0.0 0.00 0.00 0.00 94 1015.9
20260906082003 60 0 0.0 0.0 0.00 0.00 0.00 93 1015.8
20260906081718 60 0 0.0 0.0 0.00 0.00 0.00 93 1015.8
20260906081003 61 0 0.0 0.0 0.00 0.00 0.00 94 1015.7
20260906080503 61 0 0.0 0.0 0.00 0.00 0.00 93 1015.7
20260906080003 61 0 0.0 0.0 0.00 0.00 0.00 93 1015.8
20260906075717 61 0 0.0 0.0 0.00 0.00 0.00 93 1015.7
20260906075008 61 0 0.0 0.0 0.00 0.00 0.00 93 1015.8
20260906074503 61 0 0.0 0.0 0.00 0.00 0.00 93 1015.7
20260906074003 61 0 0.0 0.0 0.00 0.00 0.00 93 1015.7
20260906073503 62 0 0.0 0.0 0.00 0.00 0.00 93 1015.6
20260906073005 62 0 0.0 0.0 0.00 0.00 0.00 93 1015.7
20260906072503 62 0 0.0 0.0 0.00 0.00 0.00 93 1015.6
20260906072003 62 0 0.0 0.0 0.00 0.00 0.00 93 1015.5
20260906071503 62 0 0.0 0.0 0.00 0.00 0.00 93 1015.5
20260906071218 62 0 0.0 0.0 0.00 0.00 0.00 93 1015.6
20260906070503 62 0 0.0 0.0 0.00 0.00 0.00 94 1015.6
20260906070003 62 0 0.0 0.0 0.00 0.00 0.00 94 1015.6
20260906065503 62 0 0.0 0.0 0.00 0.00 0.00 93 1015.8
20260906065003 62 0 0.0 0.0 0.00 0.00 0.00 93 1015.8
20260906064503 62 0 0.0 0.0 0.00 0.00 0.00 93 1015.8
20260906064003 62 0 0.0 0.0 0.00 0.00 0.00 93 1015.8
20260906063503 62 0 0.0 0.0 0.00 0.00 0.00 94 1015.8
20260906063003 62 0 0.0 0.0 0.00 0.00 0.00 94 1015.7
20260906062505 62 0 0.0 0.0 0.00 0.00 0.00 93 1015.8
20260906062003 63 0 0.0 0.0 0.00 0.00 0.00 94 1015.9
20260906061503 63 0 0.0 0.0 0.00 0.00 0.00 94 1015.8
20260906061003 63 0 0.0 0.0 0.00 0.00 0.00 94 1015.7
20260906060503 62 0 0.0 0.0 0.00 0.00 0.00 94 1015.7
20260906060218 62 0 0.0 0.0 0.00 0.00 0.00 94 1015.7
20260906055503 62 0 0.0 0.0 0.00 0.00 0.00 93 1015.7
20260906055003 62 0 0.0 0.0 0.00 0.00 0.00 93 1015.7
20260906054716 62 0 0.0 0.0 0.00 0.00 0.00 93 1015.7
20260906054217 62 0 0.0 0.0 0.00 0.00 0.00 93 1015.7
20260906053503 62 0 0.0 0.0 0.00 0.00 0.00 93 1015.7
20260906053217 62 0 0.0 0.0 0.00 0.00 0.00 93 1015.7
20260906052503 63 0 0.0 0.0 0.00 0.00 0.00 93 1015.7
20260906052003 63 0 0.0 0.0 0.00 0.00 0.00 93 1015.7
20260906051503 63 0 0.0 0.0 0.00 0.00 0.00 93 1015.7
20260906051003 63 0 0.0 0.0 0.00 0.00 0.00 93 1015.7
20260906050503 63 0 0.0 0.0 0.00 0.00 0.00 93 1015.7
20260906050003 63 0 0.0 0.0 0.00 0.00 0.00 93 1015.7
20260906045503 63 0 0.0 0.0 0.00 0.00 0.00 93 1015.7
20260906045003 63 0 0.0 0.0 0.00 0.00 0.00 93 1015.6
20260906044503 63 0 0.0 0.0 0.00 0.00 0.00 93 1015.6
20260906044003 63 0 0.0 0.0 0.00 0.00 0.00 93 1015.7
20260906043503 63 0 0.0 0.0 0.00 0.00 0.00 93 1015.6
20260906043217 63 0 0.0 0.0 0.00 0.00 0.00 93 1015.6
20260906042503 63 0 0.0 0.0 0.00 0.00 0.00 93 1015.6
20260906042003 63 0 0.0 0.0 0.00 0.00 0.00 93 1015.6
20260906041503 63 0 0.0 0.0 0.00 0.00 0.00 93 1015.5
20260906041003 63 0 0.0 0.0 0.00 0.00 0.00 93 1015.4
20260906040503 63 0 0.0 0.0 0.00 0.00 0.00 93 1015.6
20260906040004 63 0 0.0 0.0 0.00 0.00 0.00 93 1015.5
20260906035503 63 0 0.0 0.0 0.00 0.00 0.00 92 1015.4
20260906035217 63 0 0.0 0.0 0.00 0.00 0.00 92 1015.4
20260906034718 63 0 0.0 0.0 0.00 0.00 0.00 93 1015.4
20260906034003 63 0 0.0 0.0 0.00 0.00 0.00 92 1015.4
20260906033503 63 0 0.0 0.0 0.00 0.00 0.00 92 1015.4
20260906033003 63 0 0.0 0.0 0.00 0.00 0.00 92 1015.3
20260906032721 63 0 0.0 0.0 0.00 0.00 0.00 92 1015.3
20260906032003 63 0 0.0 0.0 0.00 0.00 0.00 92 1015.4
20260906031722 63 0 0.0 0.0 0.00 0.00 0.00 92 1015.4
20260906031003 63 0 0.0 0.0 0.00 0.00 0.00 92 1015.2
20260906030503 63 0 0.0 0.0 0.00 0.00 0.00 92 1015.1
20260906030218 63 0 0.0 0.0 0.00 0.00 0.00 92 1015.1
20260906025503 63 0 0.0 0.0 0.00 0.00 0.00 92 1015.1
20260906025003 63 0 0.0 0.0 0.00 0.00 0.00 92 1015.3
20260906024503 63 0 0.0 0.0 0.00 0.00 0.00 92 1015.3
20260906024003 63 0 0.0 0.0 0.00 0.00 0.00 92 1015.2
20260906023717 63 0 0.0 0.0 0.00 0.00 0.00 92 1015.2
20260906023218 63 0 0.0 0.0 0.00 0.00 0.00 92 1015.2
20260906022503 63 0 0.0 0.0 0.00 0.00 0.00 92 1015.2
20260906022003 63 0 0.0 0.0 0.00 0.00 0.00 92 1015.3
20260906021503 63 0 0.0 0.0 0.00 0.00 0.00 92 1015.2
20260906021003 63 0 0.0 0.0 0.00 0.00 0.00 92 1015.2
20260906020503 63 0 0.0 0.0 0.00 0.00 0.00 92 1015.1
20260906020003 63 0 0.0 0.0 0.00 0.00 0.00 92 1015.1
20260906015503 63 0 0.0 0.0 0.00 0.00 0.00 92 1015.1
20260906015008 63 0 0.0 0.0 0.00 0.00 0.00 92 1015.1
20260906014503 63 0 0.0 0.0 0.00 0.00 0.00 91 1015.1
20260906014003 63 0 0.0 0.0 0.00 0.00 0.00 91 1015.1
20260906013503 63 0 0.0 0.0 0.00 0.00 0.00 91 1015.0
20260906013218 63 0 0.0 0.0 0.00 0.00 0.00 91 1014.9
20260906012503 63 0 0.0 0.0 0.00 0.00 0.00 90 1014.9
20260906012003 63 0 0.0 0.0 0.00 0.00 0.00 90 1014.9
20260906011717 63 0 0.0 0.0 0.00 0.00 0.00 90 1014.9
20260906011003 63 0 0.0 0.0 0.00 0.00 0.00 90 1014.9
20260906010504 64 0 0.0 0.0 0.00 0.00 0.00 89 1014.7
20260906010003 64 0 0.0 0.0 0.00 0.00 0.00 89 1014.6
20260906005717 64 0 0.0 0.0 0.00 0.00 0.00 89 1014.6
20260906005003 64 0 0.0 0.0 0.00 0.00 0.00 89 1014.6
20260906004503 64 0 0.0 0.0 0.00 0.00 0.00 88 1014.6
20260906004218 64 0 0.0 0.0 0.00 0.00 0.00 88 1014.6
20260906003503 64 0 0.0 0.0 0.00 0.00 0.00 89 1014.6
20260906003217 65 0 0.0 0.0 0.00 0.00 0.00 88 1014.6
20260906002508 65 0 0.0 0.0 0.00 0.00 0.00 88 1014.6
20260906002003 65 0 0.0 0.0 0.00 0.00 0.00 88 1014.6
20260906001508 65 0 0.0 0.0 0.00 0.00 0.00 88 1014.6
20260906001003 65 0 0.0 0.0 0.00 0.00 0.00 87 1014.5
20260906000503 66 0 0.0 0.0 0.00 0.00 0.00 86 1014.3
20260906000219 66 0 0.0 0.0 0.00 0.00 0.00 86 1014.3
20260905235503 66 0 0.0 0.0 0.00 0.00 0.00 84 1014.3
20260905235003 66 0 0.0 0.0 0.00 0.00 0.00 83 1014.3
20260905234503 67 0 0.0 0.0 0.00 0.00 0.00 82 1014.4
20260905234003 67 0 0.0 0.0 0.00 0.00 0.00 82 1014.5
20260905233503 67 0 0.0 0.0 0.00 0.00 0.00 81 1014.6
20260905233003 68 0 0.0 0.0 0.00 0.00 0.00 82 1014.7
20260905232503 68 0 0.0 0.0 0.00 0.00 0.00 82 1014.6
20260905232003 68 0 0.0 0.0 0.00 0.00 0.00 80 1014.6
20260905231504 68 0 0.0 0.0 0.00 0.00 0.00 79 1014.5
20260905231003 68 0 0.0 0.0 0.00 0.00 0.00 79 1014.6
20260905230505 68 0 0.0 0.0 0.00 0.00 0.00 77 1014.6
20260905230217 68 0 0.0 0.0 0.00 0.00 0.00 78 1014.6
20260905225503 69 0 0.0 0.0 0.00 0.00 0.00 77 1014.5
20260905225003 69 0 0.0 0.0 0.00 0.00 0.00 78 1014.5
20260905224503 69 0 0.0 0.0 0.00 0.00 0.00 77 1014.4
20260905224003 69 0 0.0 0.0 0.00 0.00 0.00 77 1014.4
20260905223503 69 0 0.0 0.0 0.00 0.00 0.00 76 1014.4
20260905223003 70 32 0.0 1.0 0.00 0.00 0.00 76 1014.4
20260905222503 70 32 0.0 1.0 0.00 0.00 0.00 75 1014.4
20260905222003 70 32 0.0 1.0 0.00 0.00 0.00 75 1014.4
20260905221503 70 32 0.0 1.0 0.00 0.00 0.00 76 1014.5
20260905221003 70 0 0.0 0.0 0.00 0.00 0.00 74 1014.5
20260905220503 70 32 0.0 1.0 0.00 0.00 0.00 76 1014.4
20260905220003 70 32 0.0 1.0 0.00 0.00 0.00 71 1014.4
20260905215503 70 32 0.0 1.0 0.00 0.00 0.00 71 1014.3
20260905215003 71 34 0.0 2.0 0.00 0.00 0.00 73 1014.3
20260905214504 71 34 0.0 2.0 0.00 0.00 0.00 72 1014.2
20260905214003 71 0 0.0 0.0 0.00 0.00 0.00 72 1014.2
20260905213503 71 14 0.0 1.0 0.00 0.00 0.00 70 1014.2
20260905213003 71 21 0.0 1.0 0.00 0.00 0.00 70 1014.2
20260905212508 71 24 0.0 2.0 0.00 0.00 0.00 71 1014.1
20260905212003 72 25 0.0 2.0 0.00 0.00 0.00 71 1014.1
20260905211503 72 33 0.0 1.0 0.00 0.00 0.00 74 1014.1
20260905211003 72 37 1.0 2.0 0.00 0.00 0.00 72 1014.2
20260905210504 72 40 0.0 2.0 0.00 0.00 0.00 70 1014.2
20260905210003 72 39 0.0 2.0 0.00 0.00 0.00 70 1014.1
20260905205503 73 38 0.0 2.0 0.00 0.00 0.00 69 1014.1
20260905205003 73 29 0.0 2.0 0.00 0.00 0.00 70 1014.1
20260905204503 73 23 1.0 3.0 0.00 0.00 0.00 69 1014.1
20260905204003 74 41 1.0 3.0 0.00 0.00 0.00 67 1014.1
20260905203503 74 48 1.0 3.0 0.00 0.00 0.00 68 1014.0
20260905203003 74 53 0.0 3.0 0.00 0.00 0.00 68 1014.1
20260905202503 74 53 0.0 3.0 0.00 0.00 0.00 67 1014.1
20260905202003 74 39 1.0 3.0 0.00 0.00 0.00 69 1014.0
20260905201717 74 38 1.0 3.0 0.00 0.00 0.00 67 1014.0
20260905201003 74 52 0.0 2.0 0.00 0.00 0.00 68 1014.1
20260905200503 75 74 0.0 2.0 0.00 0.00 0.00 69 1014.2
20260905200008 75 74 1.0 3.0 0.00 0.00 0.00 69 1014.2
20260905195503 75 28 1.0 3.0 0.00 0.00 0.00 68 1014.2
20260905195004 75 15 1.0 3.0 0.00 0.00 0.00 70 1014.2
20260905194503 75 32 1.0 4.0 0.00 0.00 0.00 70 1014.1
20260905194219 74 27 1.0 4.0 0.00 0.00 0.00 71 1014.1
20260905193503 75 331 1.0 2.0 0.00 0.00 0.00 70 1014.1
20260905193003 74 342 1.0 2.0 0.00 0.00 0.00 70 1014.2
20260905192503 74 347 0.0 2.0 0.00 0.00 0.00 72 1014.2
20260905192003 74 323 0.0 2.0 0.00 0.00 0.00 71 1014.2
20260905191716 74 291 0.0 2.0 0.00 0.00 0.00 71 1014.2
20260905191003 74 273 1.0 2.0 0.00 0.00 0.00 71 1014.4
20260905190503 74 212 1.0 2.0 0.00 0.00 0.00 65 1014.3
20260905190218 74 199 0.0 2.0 0.00 0.00 0.00 69 1014.3
20260905185503 73 200 0.0 2.0 0.00 0.00 0.00 70 1014.3
20260905185003 73 187 1.0 2.0 0.00 0.00 0.00 69 1014.4
20260905184503 73 67 1.0 3.0 0.00 0.00 0.00 69 1014.3
20260905184003 73 45 1.0 3.0 0.00 0.00 0.00 65 1014.3
20260905183503 74 31 1.0 2.0 0.00 0.00 0.00 70 1014.3
20260905183217 74 38 1.0 2.0 0.00 0.00 0.00 71 1014.3
20260905182503 73 50 1.0 2.0 0.00 0.00 0.00 68 1014.3
20260905182003 73 56 0.0 2.0 0.00 0.00 0.00 70 1014.3
20260905181503 73 63 0.0 2.0 0.00 0.00 0.00 76 1014.2
20260905181003 73 63 1.0 2.0 0.00 0.00 0.00 72 1014.2
20260905180505 72 46 1.0 3.0 0.00 0.00 0.00 73 1014.2
20260905180003 72 41 1.0 3.0 0.00 0.00 0.00 68 1014.2
20260905175503 72 48 0.0 1.0 0.00 0.00 0.00 77 1014.1
20260905175003 72 48 0.0 1.0 0.00 0.00 0.00 75 1014.1
20260905174503 72 41 0.0 3.0 0.00 0.00 0.00 73 1014.1
20260905174003 72 41 0.0 3.0 0.00 0.00 0.00 70 1014.1
20260905173503 72 48 0.0 1.0 0.00 0.00 0.00 76 1014.1
20260905173003 72 48 0.0 2.0 0.00 0.00 0.00 73 1014.1
20260905172503 72 48 0.0 2.0 0.00 0.00 0.00 74 1014.2
20260905172003 71 58 0.0 3.0 0.00 0.00 0.00 78 1014.2
20260905171503 71 50 1.0 3.0 0.00 0.00 0.00 72 1014.2
20260905171217 72 41 0.0 2.0 0.00 0.00 0.00 72 1014.2
20260905170718 71 5 0.0 2.0 0.00 0.00 0.00 75 1014.2
20260905170003 71 31 0.0 1.0 0.00 0.00 0.00 75 1014.1
20260905165503 70 0 0.0 0.0 0.00 0.00 0.00 78 1014.1
20260905165223 70 0 0.0 0.0 0.00 0.00 0.00 79 1014.1
20260905164503 70 0 0.0 0.0 0.00 0.00 0.00 74 1014.2
20260905164217 70 0 0.0 0.0 0.00 0.00 0.00 77 1014.1
20260905163503 70 21 0.0 1.0 0.00 0.00 0.00 76 1014.2
20260905163003 70 21 0.0 1.0 0.00 0.00 0.00 77 1014.2
20260905162503 70 20 0.0 1.0 0.00 0.00 0.00 77 1014.3
20260905162003 70 4 0.0 1.0 0.00 0.00 0.00 77 1014.2
20260905161503 70 309 0.0 1.0 0.00 0.00 0.00 74 1014.2
20260905161218 70 323 0.0 2.0 0.00 0.00 0.00 76 1014.2
20260905160503 70 37 0.0 2.0 0.00 0.00 0.00 78 1014.3
20260905160003 70 44 1.0 3.0 0.00 0.00 0.00 77 1014.3
20260905155503 69 48 1.0 3.0 0.00 0.00 0.00 79 1014.4
20260905155218 69 57 1.0 3.0 0.00 0.00 0.00 80 1014.4